Flag for Hong Kong Weather past 2 weeks in Kowloon, Hong Kong

Now
88 °F

Passing clouds.


Feels Like: 98 °F
Forecast: 82 / 87 °F
Wind: 13 mph from Southeast

Location: National Airport

Current Time: Aug 28, 2015 at 3:38:29 PM

Latest Report: Aug 28, 2015 at 3:00 PM


Visibility: N/A

Pressure: 29.65 "Hg

Humidity: 66%

Dew point: 75 °F

Location of KowloonLocation

Historic Weather in Kowloon — Graph

°F

Kowloon temperature yesterday

Maximum temperature yesterday: 90 °F (at 10:30 AM)
Minimum temperature yesterday: 81 °F (at 4:00 AM)
Average temperature yesterday: 84 °F

Past Weeks' High & Low Weather Summary

 TemperatureHumidityPressure
High95 °F (Aug 24, 4:30 PM)94% (Aug 14, 6:00 PM)29.80 "Hg (Aug 14, 6:00 PM)
Low77 °F (Aug 14, 6:00 PM)39% (Aug 24, 4:30 PM)29.47 "Hg (Aug 22, 4:00 PM)
Average87 °F72%29.69 "Hg
* Reported Aug 13 2:00 PM — Aug 28 2:30 PM, Kowloon, Weather by CustomWeather, © 2015

Note: Actual official high and low records may vary slightly from our data, if they occured in-between our weather recording intervals... More about our weather records

Advertising

Kowloon weather history for previous 24 hours

 ConditionsComfort  
Time TempWeatherWind HumidityBarometerVisibility
2:30 PM
Fri, Aug 28
86 °FPassing clouds.15 mph70%29.68 "HgN/A
2:00 PM86 °FScattered clouds.16 mph70%29.68 "HgN/A
1:30 PM88 °FScattered clouds.12 mph70%29.68 "HgN/A
1:00 PM88 °FScattered clouds.10 mph66%29.68 "HgN/A
12:30 PM86 °FScattered clouds.9 mph75%29.71 "HgN/A
12:00 PM84 °FPassing clouds.6 mph74%29.71 "HgN/A
11:00 AM86 °FPassing clouds.5 mph70%29.74 "HgN/A
10:30 AM84 °FPassing clouds.3 mph74%29.74 "HgN/A
10:00 AM84 °FSprinkles. Scattered clouds.3 mph74%29.74 "HgN/A
9:30 AM84 °FPassing clouds.5 mph74%29.74 "HgN/A
9:00 AM84 °FPassing clouds.3 mph74%29.74 "HgN/A
8:30 AM86 °FPassing clouds.6 mph75%29.74 "HgN/A
8:00 AM84 °FPassing clouds.3 mph74%29.74 "HgN/A
7:30 AM82 °FPassing clouds.5 mph84%29.74 "HgN/A
7:00 AM82 °FPassing clouds.5 mph79%29.71 "HgN/A
6:00 AM81 °FPassing clouds.5 mph84%29.71 "HgN/A
5:30 AM81 °FPassing clouds.5 mph89%29.71 "HgN/A
5:00 AM81 °FPassing clouds.6 mph84%29.71 "HgN/A
4:30 AM82 °FPassing clouds.3 mph79%29.71 "HgN/A
4:00 AM82 °FPassing clouds.2 mph79%29.71 "HgN/A
3:30 AM81 °FPassing clouds.3 mph84%29.71 "HgN/A
3:00 AM82 °FPassing clouds.5 mph79%29.71 "HgN/A
2:30 AM82 °FPassing clouds.3 mph79%29.74 "HgN/A
2:00 AM82 °FPassing clouds.5 mph84%29.74 "HgN/A
1:30 AM82 °FPassing clouds.6 mph84%29.74 "HgN/A
1:00 AM82 °FPassing clouds.6 mph84%29.77 "HgN/A
12:30 AM82 °FPassing clouds.3 mph79%29.77 "HgN/A
12:00 AM82 °FPassing clouds.6 mph79%29.77 "HgN/A
11:30 PM
Thu, Aug 27
82 °FPassing clouds.5 mph79%29.80 "HgN/A
11:00 PM82 °FPassing clouds.2 mph79%29.80 "HgN/A
10:30 PM82 °FPassing clouds.3 mph79%29.80 "HgN/A
10:00 PM82 °FPassing clouds.6 mph84%29.80 "HgN/A
9:30 PM82 °FPassing clouds.9 mph79%29.80 "HgN/A
9:00 PM82 °FPassing clouds.6 mph84%29.77 "HgN/A
8:30 PM82 °FPassing clouds.5 mph79%29.77 "HgN/A
8:00 PM84 °FPassing clouds.5 mph74%29.74 "HgN/A
7:30 PM82 °FPassing clouds.5 mph79%29.74 "HgN/A
7:00 PM82 °FPassing clouds.12 mph79%29.74 "HgN/A
6:30 PM84 °FPassing clouds.13 mph74%29.74 "HgN/A
6:00 PM84 °FPassing clouds.13 mph79%29.71 "HgN/A
5:30 PM86 °FScattered clouds.15 mph75%29.74 "HgN/A
5:00 PM86 °FScattered clouds.15 mph75%29.74 "HgN/A
4:30 PM86 °FScattered clouds.15 mph70%29.71 "HgN/A
4:00 PM88 °FScattered clouds.16 mph66%29.71 "HgN/A
3:30 PM88 °FScattered clouds.15 mph66%29.71 "HgN/A
3:00 PM88 °FScattered clouds.13 mph62%29.74 "HgN/A
Weather by CustomWeather, © 2015

See weather overviewHow to use our weather pages